Dewpoint
57 55 58 59 59 58 59 58 58 61 59 59 60 58 58 57 58 58 58 57 57 53 54 54 54 54 57 56 58 61 61 61 60 59 59 61 60 59 62 62 62 62 62 61 61 59 57 56 58 62 63 63 63 64 65 65 65 65 67 67 67 67 67
55 56 55 55 58 59 59 60 59 56 58 59 57 57 56 55 56 56 55 53 51 50 49 50 52 53 55 56 57 57 58 58 60 60 58 58 59 59 60 59 59 61 60 61 61 61 58 56 56 57 58 61 63 64 65 65 64 66 67 66 66 65 66
55 54 54 56 57 59 59 58 58 59 57 60 59 56 54 50 54 54 53 53 54 52 50 49 52 54 56 56 57 57 57 57 57 56 57 57 58 58 58 60 58 57 58 58 59 59 58 56 54 53 56 55 56 60 63 65 65 64 63 64 65 63 63
55 55 54 56 56 58 56 57 59 58 59 57 58 57 56 53 55 56 56 53 54 54 53 52 53 52 56 56 56 56 55 56 56 56 55 56 55 53 53 51 50 52 51 51 51 52 50 50 49 48 47 43 40 45 59 60 61 60 59 60 60 61 61
55 55 54 55 55 56 57 57 59 58 57 57 58 57 57 57 57 55 55 55 55 56 55 55 56 54 55 54 56 56 56 56 56 56 55 55 55 54 53 53 53 53 52 50 50 51 51 51 50 47 44 41 41 40 41 59 57 53 52 50 51 53 55
56 56 54 56 55 57 56 57 57 57 56 55 57 55 57 57 57 57 57 57 56 56 56 53 54 55 53 54 54 54 53 53 53 53 53 53 52 52 54 52 52 50 50 51 52 50 51 51 50 49 46 44 45 43 39 37 43 45 42 43 44 44 40
57 58 56 55 56 57 56 57 57 57 56 57 56 56 55 57 57 59 58 56 55 55 55 56 56 55 56 50 53 54 54 55 56 54 54 54 53 53 52 51 49 50 52 53 51 54 54 49 48 48 47 47 46 42 40 37 36 36 40 40 38 39 44
57 58 58 57 57 58 56 57 58 58 57 56 56 56 55 58 58 57 57 56 56 56 55 55 56 55 56 52 53 55 55 55 54 54 53 53 53 52 52 51 56 49 51 47 52 50 48 49 49 48 47 45 45 46 46 40 37 34 35 36 37 39 45
55 57 58 57 58 61 58 57 58 59 58 58 56 56 56 58 57 57 56 57 56 56 55 54 55 54 55 54 55 55 53 52 54 54 53 53 53 53 52 52 52 48 49 49 49 50 50 51 51 50 49 46 44 43 44 44 43 40 40 38 38 38 39
56 56 56 59 58 59 61 58 59 59 60 58 57 56 55 58 57 57 55 55 56 56 56 55 55 54 54 55 54 54 55 55 55 52 53 53 53 53 52 51 52 49 48 52 52 50 51 51 51 51 49 47 48 44 43 43 44 44 40 40 38 39 41
58 57 56 59 58 57 60 59 60 59 60 58 57 56 56 57 58 57 56 56 56 56 56 55 54 53 55 55 54 54 54 54 54 53 54 52 52 52 51 50 51 49 50 52 51 54 55 51 50 51 49 49 47 45 45 43 43 44 44 44 42 41 41
61 60 59 60 58 57 58 60 60 59 60 59 57 57 56 56 57 56 57 55 55 55 55 55 55 53 54 54 53 54 53 53 53 52 52 52 52 53 51 50 50 51 48 49 50 54 53 51 49 45 46 48 51 50 47 46 43 45 45 44 44 43 42
58 60 60 61 61 59 59 59 60 59 60 58 59 57 55 55 55 55 55 55 54 53 53 54 53 52 54 54 52 52 51 53 51 50 49 50 47 51 49 50 48 48 49 47 47 51 53 50 51 49 48 48 46 49 49 47 45 44 47 46 45 45 42
61 59 58 61 57 61 60 60 59 61 58 57 59 58 56 54 53 54 52 53 52 53 52 53 52 53 51 53 51 53 49 50 49 49 50 49 49 49 49 47 48 49 49 49 48 46 45 46 48 48 47 46 46 46 45 46 44 43 46 49 48 43 42
61 60 61 61 60 59 57 59 60 60 61 58 53 55 55 57 55 54 52 51 52 52 52 51 51 52 50 52 50 53 50 48 48 48 49 46 49 51 49 47 46 48 48 46 47 43 41 41 38 37 40 46 42 44 44 43 42 41 40 43 44 43 41
58 59 59 59 60 59 60 58 58 59 59 57 59 57 54 54 54 53 52 52 51 52 51 50 51 52 51 51 49 52 51 49 49 50 48 48 45 46 48 49 47 49 50 48 48 48 48 46 44 40 44 43 44 44 43 42 44 43 42 43 44 42 43
59 57 56 58 59 59 59 59 59 58 57 59 57 59 59 57 53 52 52 52 51 51 51 51 51 50 49 49 49 50 49 49 49 49 47 46 44 47 47 48 48 49 48 48 47 47 46 46 47 45 43 42 43 42 45 45 45 44 44 43 44 41 42
59 59 58 57 59 59 58 58 57 56 58 59 58 59 59 58 56 53 53 51 51 51 51 51 50 50 51 52 50 50 48 47 48 48 48 48 50 46 47 48 47 47 47 46 46 46 46 46 41 44 43 41 40 43 44 43 42 40 40 39 39 40 40
60 60 60 60 60 60 59 58 58 57 56 56 57 59 56 56 55 53 51 51 50 51 51 51 50 50 49 50 52 51 49 49 49 47 48 48 46 47 48 46 47 45 45 46 46 46 45 44 44 44 42 41 39 41 44 44 43 43 42 40 40 41 41
59 60 61 61 61 59 57 57 57 57 57 56 56 56 55 54 54 54 53 51 51 52 52 51 51 50 49 49 49 49 50 49 49 49 48 46 46 45 46 45 46 46 44 44 45 44 44 44 45 43 43 42 39 39 40 39 39 38 39 39 39 40 40
58 59 59 60 60 60 59 59 57 58 58 56 55 56 55 54 53 53 53 52 52 57 55 54 52 51 50 50 50 49 49 49 48 49 50 47 48 46 46 46 46 45 44 44 44 39 38 40 41 40 38 38 39 38 38 38 38 36 36 37 37 37 38
53 54 52 56 58 59 59 58 59 59 58 57 58 59 59 58 57 56 57 57 55 57 59 57 57 56 54 50 50 49 49 47 48 48 48 47 47 46 45 45 44 44 46 40 40 39 40 40 37 35 38 38 39 38 38 38 38 37 36 36 35 37 35
50 53 52 53 53 55 55 57 58 58 59 58 57 57 57 57 57 57 57 56 56 57 58 58 55 51 50 51 50 48 50 49 48 48 47 46 46 45 45 45 47 48 42 42 38 34 33 35 37 39 37 36 37 37 37 37 35 35 35 34 33 34 34
50 49 52 52 52 51 48 54 56 56 58 57 57 56 56 56 55 56 56 55 55 56 57 57 50 46 45 45 49 50 49 49 49 48 47 46 44 44 45 41 44 42 41 40 39 35 35 35 36 36 37 38 40 40 38 37 35 35 34 33 33 33 33
47 47 49 48 49 50 52 52 52 52 54 56 56 56 56 56 55 56 56 56 56 57 57 52 48 44 41 42 46 49 49 49 49 47 45 44 43 43 42 43 43 45 42 41 40 39 37 36 35 35 36 36 35 36 37 37 36 35 35 34 33 33 33
45 46 47 46 50 50 49 49 48 51 52 54 55 55 55 56 55 56 56 55 56 57 55 45 44 42 41 41 43 47 48 47 46 45 44 43 42 42 41 43 44 44 41 46 44 41 39 38 37 37 37 37 37 36 35 35 36 38 36 36 35 35 35
46 46 49 48 48 47 47 47 50 51 52 52 53 54 55 55 55 55 55 55 55 55 54 44 42 41 41 40 40 44 46 47 45 44 44 43 44 44 43 44 42 43 43 43 40 39 38 39 40 40 39 38 38 39 38 36 35 35 37 36 36 36 37
46 47 47 47 47 46 46 48 49 50 49 50 51 51 51 52 53 53 54 55 54 53 50 41 40 40 39 39 38 40 47 47 44 45 45 45 43 46 44 43 42 42 40 40 43 43 41 39 38 38 37 37 36 35 36 37 39 38 37 38 36 36 37
48 47 47 47 46 46 48 49 49 50 50 50 49 48 49 51 52 53 54 54 54 51 46 38 38 38 37 36 37 43 42 41 41 41 41 42 43 42 43 42 41 41 41 41 39 33 37 41 37 36 36 35 35 36 37 38 37 37 39 41 40 39 39
46 47 46 46 45 46 48 49 49 49 48 49 49 49 48 50 50 51 52 53 53 47 43 38 36 36 35 35 39 41 39 36 38 39 42 43 43 42 43 41 41 40 42 39 37 33 32 34 37 36 34 34 35 35 36 37 37 36 36 36 36 36 36
44 45 45 44 45 47 47 47 47 48 46 46 47 47 49 48 50 49 51 51 49 45 41 38 35 34 35 36 39 40 39 39 39 38 41 43 43 41 40 46 43 40 41 41 34 34 34 36 37 37 36 34 33 34 34 36 36 37 36 36 36 36 36
43 46 44 43 47 46 47 46 44 47 45 45 46 47 46 47 48 49 47 47 44 42 38 35 34 33 34 35 39 41 38 37 37 39 38 38 39 39 40 43 42 40 39 36 34 34 34 36 36 36 35 35 34 33 34 35 34 34 34 33 33 33 33
43 41 40 43 47 48 48 47 46 44 46 43 42 46 46 46 47 44 44 42 42 39 35 34 34 33 33 33 34 36 39 41 39 39 40 38 39 40 37 37 37 34 34 33 33 33 33 33 33 33 34 33 33 33 34 33 33 32 31 32 31 31 32
44 44 43 46 46 47 47 46 47 47 46 46 47 48 50 46 44 42 42 41 39 38 36 33 35 33 33 33 34 36 34 37 35 34 34 34 34 34 31 32 35 34 33 33 33 32 32 32 32 33 33 32 32 34 32 30 31 33 30 31 31 31 31
42 45 45 47 48 47 47 46 46 46 46 46 48 49 47 45 42 40 39 38 37 35 36 35 33 33 33 33 33 34 37 35 34 33 32 28 28 30 29 33 34 33 33 32 31 31 32 33 33 34 32 32 32 32 32 32 31 31 30 30 29 30 30
42 43 43 44 44 45 46 46 46 46 47 48 49 48 46 45 42 39 37 35 35 34 34 34 34 32 32 32 33 32 32 35 32 34 33 32 32 31 32 34 36 35 32 32 32 32 33 33 33 33 33 33 33 32 33 32 31 31 30 30 30 30 30
39 41 41 42 43 44 45 45 45 45 48 48 47 46 45 43 41 40 37 35 35 33 33 32 33 33 33 33 32 33 31 31 31 34 37 36 33 33 33 37 35 33 33 32 32 32 32 32 32 32 32 32 32 32 32 31 31 31 31 30 30 30 30